Weather History for Nassau, Bahamas

Change the Weather History Date:

Saturday, September 29, 2012

  Actual Average Record
Temperature  
Mean Temperature 82 °F -  
Max Temperature 88 °F 85 °F 91 °F (2008)
Min Temperature 76 °F 72 °F 71 °F (2001)
Cooling Degree Days 17    
Growing Degree Days 32 (Base 50)    
Moisture  
Dew Point 74 °F    
Average Humidity 78    
Maximum Humidity 89    
Minimum Humidity 20    
Precipitation  
Precipitation 0.00 in 0.23 in - ()
Sea Level Pressure  
Sea Level Pressure 29.93 in    
Wind  
Wind Speed 2 mph ()    
Max Wind Speed 9 mph    
Max Gust Speed -    
Visibility 6.7 miles    
Events Rain , Thunderstorm    
Averages and records for this station are not official NWS values.
T = Trace of Precipitation, MM = Missing Value Source: Averaged Metar Reports

Daily Weather History Graph

Daily Weather History Graph

Search for Another Location

Airport:

Trip Planner

Search our weather history database for the weather conditions in past years. The results will help you decide how hot, cold, wet, or windy it might be!

Date:

Astronomy

Sep. 29, 2012 Rise Set
Actual Time 7:01 AM EDT 6:58 PM EDT
Civil Twilight 6:38 AM EDT 7:21 PM EDT
Nautical Twilight 6:12 AM EDT 7:47 PM EDT
Astronomical Twilight 5:45 AM EDT 8:14 PM EDT
Moon 6:34 PM EDT (9/29) 6:28 AM EDT (9/29)
Length of Visible Light 12h 42m
Length of Day
11h 56m
Full, 100% of the Moon is Illuminated
Sep 29
Full
Sep 29
Full
Oct 8
Last Quarter
Oct 15
New
Oct 21
First Quarter

Hourly Weather History & Observations

Time (EDT) Temp. Heat Index Dew Point Humidity Pressure Visibility Wind Dir Wind Speed Gust Speed Precip Events Conditions
12:00 AM 80.6 °F - 35.6 °F 20% 29.96 in 6.2 mi Calm Calm - N/A   Mostly Cloudy
1:00 AM 80.6 °F 86.2 °F 75.2 °F 84% 29.96 in 6.2 mi NNE 3.5 mph - N/A   Mostly Cloudy
2:00 AM 80 °F - 76 °F 84% 29.96 in 8 mi Calm Calm - -   Partly Cloudy
2:00 AM 80.6 °F 86.2 °F 75.2 °F 84% 29.95 in 6.2 mi Calm Calm - N/A   Mostly Cloudy
2:02 AM - - - N/A% - - North - - N/A   Unknown
3:00 AM 80.6 °F 86.2 °F 75.2 °F 84% 29.93 in 6.2 mi Calm Calm - N/A   Mostly Cloudy
4:00 AM 78.8 °F - 73.4 °F 83% 29.93 in 6.2 mi Calm Calm - N/A   Mostly Cloudy
5:00 AM 77 °F - 74 °F 86% 29.94 in 8 mi Calm Calm - -   Partly Cloudy
5:00 AM 77.0 °F - 73.4 °F 89% 29.93 in 6.2 mi Calm Calm - N/A   Mostly Cloudy
6:00 AM 78.8 °F - 75.2 °F 89% 29.94 in 6.2 mi Calm Calm - N/A   Mostly Cloudy
7:00 AM 78.8 °F - 75.2 °F 89% 29.95 in 6.2 mi Calm Calm - N/A   Mostly Cloudy
8:00 AM 78 °F - 75 °F 89% 29.95 in 9 mi Calm Calm - -   Partly Cloudy
8:00 AM 78.8 °F - 75.2 °F 89% 29.95 in 6.2 mi Calm Calm - N/A   Mostly Cloudy
9:00 AM 80.6 °F 86.2 °F 75.2 °F 84% 29.96 in 6.2 mi NE 1.2 mph - N/A   Mostly Cloudy
10:00 AM 84.2 °F 92.3 °F 75.2 °F 74% 29.98 in 6.2 mi ENE 3.5 mph - N/A   Mostly Cloudy
11:00 AM 86 °F - 78 °F 70% 29.98 in 9 mi NNE 4.6 mph - -   Partly Cloudy
11:00 AM 86.0 °F 96.9 °F 77.0 °F 74% 29.97 in 6.2 mi NNE 4.6 mph - N/A   Mostly Cloudy
12:00 PM 84.2 °F 92.3 °F 75.2 °F 74% 29.96 in 6.2 mi NE 6.9 mph - N/A   Mostly Cloudy
12:35 PM 84.2 °F 92.3 °F 75.2 °F 74% 29.95 in 6.2 mi ENE 8.1 mph - N/A Thunderstorm Thunderstorm
1:00 PM 82.4 °F 89.5 °F 75.2 °F 79% 29.95 in 6.2 mi NE 8.1 mph - N/A Rain Light Rain Showers
2:00 PM 87.8 °F 97.6 °F 75.2 °F 66% 29.91 in 6.2 mi East 5.8 mph - N/A   Mostly Cloudy
3:00 PM 84.2 °F 90.9 °F 73.4 °F 70% 29.90 in 6.2 mi SE 9.2 mph - N/A   Mostly Cloudy
4:00 PM 84.2 °F 90.9 °F 73.4 °F 70% 29.89 in 6.2 mi SE 6.9 mph - N/A   Mostly Cloudy
5:00 PM 84 °F - 76 °F 72% 29.88 in 8 mi South 3.5 mph - -   Scattered Clouds
5:00 PM 84.2 °F 94.1 °F 77.0 °F 79% 29.88 in 6.2 mi South 3.5 mph - N/A   Mostly Cloudy
6:00 PM 82.4 °F 87.2 °F 71.6 °F 70% 29.88 in 6.2 mi SE 3.5 mph - N/A   Mostly Cloudy
7:00 PM 82.4 °F 88.2 °F 73.4 °F 74% 29.88 in 6.2 mi SE 3.5 mph - N/A   Mostly Cloudy
8:00 PM 82 °F - 75 °F 73% 29.89 in 8 mi Calm Calm - -   Scattered Clouds
8:00 PM 82.4 °F 89.5 °F 75.2 °F 79% 29.88 in 6.2 mi Calm Calm - N/A   Mostly Cloudy
9:00 PM 80.6 °F 85.4 °F 73.4 °F 79% 29.91 in 6.2 mi Calm Calm - N/A   Mostly Cloudy
10:00 PM 80.6 °F 86.2 °F 75.2 °F 84% 29.93 in 6.2 mi Calm Calm - N/A   Scattered Clouds
11:00 PM 80 °F - 77 °F 87% 29.94 in 8 mi Calm Calm - - Rain Light Rain Showers
11:00 PM 80.6 °F 87.1 °F 77.0 °F 89% 29.93 in 6.2 mi Calm Calm - N/A   Scattered Clouds